STARLINK-35219, 66443

Orbit data source: Space-Track

STARLINK-35219, 66443 is a payload satellite owned by SpaceX/Seattle (US) in LEO that was launched on Tue, 11 Nov 2025 UTC via an FALCON 9 launch vehicle from the Air Force Eastern Test Range (AFETR). Payload-class satellites include a variety of spacecraft equipped with specific instruments for various scientific and technological missions. These include communications satellites like Starlink; space stations such as the ISS; scientific satellites like the Hubble; Earth observation satellites from companies like Planet Labs, Umbra, and HawkEye 360; GPS; miniature CubeSats for education and research; and military/defense satellites.

Loading next visibility...
Identifier
66443, 2025-259X
Orbit
LEO
Country
Flag of USUS
Related business
Manufacturer
SpaceX/Seattle
Mission
Operational Commercial Communications
Bus & Motor
STARLINK V2MO, Unknown motor
Mass
575 kg wet, ~530 kg dry
Launch date (UTC)
2025-11-11 (7 months ago)
Launch vehicle
FALCON 9
Launch site
Air Force Eastern Test Range (AFETR)
Object type
Payload
Rocket body
Debris
Shape & HBR
Box + 2 Pan, 17.7 m
Radar Cross Section
36.964 m², Large (>1 m²)

Expand to show TLE details & history
Last TLE update: 2 days ago

TLE from 2 days ago
0 STARLINK-35219
1 66443U 25259X   26149.15975283  .00030593  00000-0  11159-2 0  9997
2 66443  42.9969 180.2751 0002031 274.2274  85.8346 15.27600808 31681
Epoch: 2026-05-29T03:50Z
TLE epoch observation values (Epoch: 2026-05-29T03:50:02.644Z)
Latitude
0.00002°
Longitude
-123.93003°
Altitude
482.661 km
Speed
7.626 km/s
True Right ascension
12h 01m 06s
True Declination
0° 00' 00"
Sunlit
Object was in full shadow at epoch
Visualization orbit readout
Latitude
Unknown
Longitude
Unknown
Altitude
Unknown
Speed
Unknown
Apparent Right ascension
Unknown
Apparent Declination
Unknown
Sunlit
N/A
Visualization observer readout
Local Sidereal Time
02:01:14
Azimuth
Unknown
Elevation
Unknown
Doppler factor
Unknown
Orbital elements
Apogee altitude
486.326 km
Perigee altitude
483.539 km
Semi-major axis
6,863.07 km
Eccentricity
0.0002
Inclination
42.9969°
RAAN
180.2751°
Arg. of periapsis
274.2274°
True anomaly
85.85781°
Mean anomaly
85.8346°
Eccentric anomaly
85.84621°
Mean motion
3.81738 °/min
Orbital period
94.31 mins
BSTAR
0.0011159
Loading maneuver chart data...
Computing Atmospheric mass density...
Loading historical data...
Loading historical data...
Loading historical data...
Loading historical data...
Loading historical data...
Loading historical data...
Loading historical data...

Documentation

Showing up to 5 results
|